, NM

(GMT )
Holloman AFB

Weather History for KHMN - September, 2013

Change the Weather History Date:

Thursday, September 12, 2013

  Actual Average Record
Temperature  
Mean Temperature 70 °F -  
Max Temperature 73 °F 85 °F 93 °F (2000)
Min Temperature 66 °F 58 °F 53 °F (2000)
Cooling Degree Days 4    
Growing Degree Days 20 (Base 50)    
Moisture  
Dew Point 65 °F    
Average Humidity 93    
Maximum Humidity 100    
Minimum Humidity 73    
Precipitation  
Precipitation 0.00 in - - ()
Sea Level Pressure  
Sea Level Pressure 30.10 in    
Wind  
Wind Speed 4 mph (NNE)    
Max Wind Speed 15 mph    
Max Gust Speed -    
Visibility 9 miles    
Events Rain    
Averages and records for this station are not official NWS values.
T = Trace of Precipitation, MM = Missing Value Source: NWS Daily Summary

Daily Weather History Graph

Daily Weather History Graph

Search for Another Location

Airport or City:

Trip Planner

Search our weather history database for the weather conditions in past years. The results will help you decide how hot, cold, wet, or windy it might be!

Date:

Astronomy

Sep. 12, 2013 Rise Set
Actual Time 6:46 AM MDT 7:14 PM MDT
Civil Twilight 6:21 AM MDT 7:39 PM MDT
Nautical Twilight 5:52 AM MDT 8:08 PM MDT
Astronomical Twilight 5:22 AM MDT 8:37 PM MDT
Moon 1:55 PM MDT (9/12) No Moon Set
Length of Visible Light 13h 17m
Length of Day
12h 27m
Waxing Crescent, 51% of the Moon is Illuminated
Sep 12
Waxing Crescent
Sep 19
Full
Sep 26
Last Quarter
Oct 4
New
Oct 11
First Quarter

Hourly Weather History & Observations

Time (MDT) Temp. Dew Point Humidity Pressure Visibility Wind Dir Wind Speed Gust Speed Precip Events Conditions
12:55 AM 68.0 °F 68.0 °F 100% 30.10 in 10.0 mi NW 3.5 mph - N/A   Clear
1:55 AM 66.2 °F 66.2 °F 100% 30.08 in 10.0 mi NNW 2.3 mph - N/A   Clear
2:55 AM 66.2 °F 66.2 °F 100% 30.08 in 10.0 mi Calm Calm - N/A   Clear
3:55 AM 66.2 °F 66.2 °F 100% 30.07 in 10.0 mi East 3.5 mph - N/A   Clear
4:55 AM 66.2 °F 66.2 °F 100% 30.07 in 10.0 mi NNE 1.2 mph - N/A   Clear
5:55 AM 66.2 °F 66.2 °F 100% 30.07 in 10.0 mi NE 2.3 mph - N/A   Clear
6:11 AM 66.2 °F 66.2 °F 100% 30.08 in 10.0 mi NE 3.5 mph - N/A   Light Drizzle
6:18 AM 66.2 °F 66.2 °F 100% 30.08 in 9.0 mi NNE 1.2 mph - N/A Rain Light Rain
6:55 AM 66.2 °F 66.2 °F 100% 30.10 in 10.0 mi NW 2.3 mph - N/A   Light Drizzle
7:08 AM 66.2 °F 66.2 °F 100% 30.10 in 7.0 mi NNW 3.5 mph - N/A Rain Light Rain
7:26 AM 66.2 °F 66.2 °F 100% 30.10 in 10.0 mi NNW 2.3 mph - N/A   Partly Cloudy
7:55 AM 66.2 °F 66.2 °F 100% 30.11 in 10.0 mi North 2.3 mph - N/A   Clear
8:31 AM 68.0 °F 66.2 °F 94% 30.12 in 9.0 mi ENE 1.2 mph - N/A   Light Drizzle
8:35 AM 68.0 °F 66.2 °F 94% 30.12 in 7.0 mi Calm Calm - N/A   Light Drizzle
8:46 AM 66.2 °F 66.2 °F 100% 30.12 in 10.0 mi Calm Calm - N/A   Clear
8:55 AM 68.0 °F 66.2 °F 94% 30.12 in 9.0 mi ENE 2.3 mph - N/A   Light Drizzle
9:14 AM 68.0 °F 68.0 °F 100% 30.13 in 3.0 mi SE 4.6 mph - N/A Rain Light Rain
9:19 AM 66.2 °F 66.2 °F 100% 30.13 in 2.5 mi SE 5.8 mph - N/A Rain Light Rain
9:24 AM 66.2 °F 66.2 °F 100% 30.13 in 3.0 mi SE 4.6 mph - N/A   Light Drizzle
9:27 AM 66.2 °F 66.2 °F 100% 30.13 in 4.0 mi SE 4.6 mph - N/A   Light Drizzle
9:43 AM 66.2 °F 66.2 °F 100% 30.13 in 10.0 mi NNW 3.5 mph - N/A   Light Drizzle
9:49 AM 66.2 °F 66.2 °F 100% 30.13 in 10.0 mi NNW 4.6 mph - N/A   Partly Cloudy
9:55 AM 68.0 °F 68.0 °F 100% 30.13 in 10.0 mi North 2.3 mph - N/A   Partly Cloudy
10:06 AM 68.0 °F 68.0 °F 100% 30.14 in 10.0 mi SW 2.3 mph - N/A   Mostly Cloudy
10:45 AM 69.8 °F 66.2 °F 88% 30.13 in 10.0 mi NW 2.3 mph - N/A   Mostly Cloudy
10:55 AM 68.0 °F 66.2 °F 94% 30.13 in 10.0 mi Calm Calm - N/A   Mostly Cloudy
11:55 AM 69.8 °F 66.2 °F 88% 30.13 in 10.0 mi NW 3.5 mph - N/A   Mostly Cloudy
12:42 PM 71.6 °F 64.4 °F 78% 30.11 in 10.0 mi Calm Calm - N/A   Mostly Cloudy
12:53 PM 71.6 °F 66.2 °F 83% 30.10 in 10.0 mi North 5.8 mph - N/A   Scattered Clouds
12:55 PM 71.6 °F 66.2 °F 83% 30.10 in 10.0 mi North 5.8 mph - N/A   Mostly Cloudy
1:55 PM 73.4 °F 64.4 °F 73% 30.09 in 10.0 mi SSW 6.9 mph - N/A   Mostly Cloudy
2:55 PM 71.6 °F 64.4 °F 78% 30.08 in 10.0 mi South 10.4 mph - N/A   Mostly Cloudy
3:55 PM 69.8 °F 60.8 °F 73% 30.05 in 10.0 mi SE 12.7 mph - N/A   Light Drizzle
4:03 PM 68.0 °F 60.8 °F 78% 30.06 in 9.0 mi South 11.5 mph - N/A Rain Light Rain
4:21 PM 68.0 °F 62.6 °F 83% 30.06 in 10.0 mi SSW 11.5 mph - N/A   Partly Cloudy
4:55 PM 69.8 °F 62.6 °F 78% 30.05 in 10.0 mi SW 13.8 mph - N/A   Clear
5:55 PM 69.8 °F 62.6 °F 78% 30.06 in 10.0 mi SW 15.0 mph - N/A   Clear
6:55 PM 69.8 °F 62.6 °F 78% 30.07 in 10.0 mi South 10.4 mph - N/A   Clear
7:55 PM 68.0 °F 64.4 °F 88% 30.08 in 10.0 mi South 4.6 mph - N/A   Clear
8:55 PM 68.0 °F 62.6 °F 83% 30.10 in 10.0 mi SSW 4.6 mph - N/A   Clear
9:55 PM 66.2 °F 62.6 °F 88% 30.10 in 10.0 mi Calm Calm - N/A   Clear
10:51 PM 66.2 °F 64.4 °F 94% 30.11 in 10.0 mi NNE 5.8 mph - N/A   Light Drizzle
10:55 PM 66.2 °F 64.4 °F 94% 30.11 in 10.0 mi North 5.8 mph - N/A   Light Drizzle
11:03 PM 66.2 °F 64.4 °F 94% 30.11 in 10.0 mi North 4.6 mph - N/A Rain Light Rain
11:18 PM 66.2 °F 66.2 °F 100% 30.11 in 10.0 mi NNE 4.6 mph - N/A Rain Light Rain
11:38 PM 66.2 °F 66.2 °F 100% 30.10 in 6.0 mi NNE 6.9 mph - N/A Rain Rain
11:44 PM 66.2 °F 66.2 °F 100% 30.11 in 9.0 mi ENE 5.8 mph - N/A Rain Light Rain
11:52 PM 66.2 °F 66.2 °F 100% 30.10 in 10.0 mi North 6.9 mph - N/A   Scattered Clouds
11:55 PM 66.2 °F 66.2 °F 100% 30.10 in 10.0 mi North 8.1 mph - N/A   Scattered Clouds